Zurück zum Katalog

SL-14 R/B

AktivPO
NORAD 20466·ROCKET BODY·🇷🇺 Russia

Gestartet Jan 30, 1990 von Plesetsk Cosmodrome

Loading…

Nächste Überflüge (nächste 24 Stunden)

TLE

AktuellSource: Space-Track

Epoche: Sep 14, 2026, 01:21 UTC

1 20466U 90010B   26257.05649995  .00000256  00000-0  27976-4 0  9995
2 20466  82.4986  90.4775 0020770  42.2826 317.9986 14.83692022956414

Verfolge SL-14 R/B in Echtzeit mit AllMySat

Download on the App Store